Regional Weather Roundup
Issued by NWS Cleveland, OH

Home | Current Version | Previous Version | Text Only | Print | Product List | Glossary Off
Versions: 1 2 3 4 5 6 7 8 9 10 11 12 13 14 15 16 17 18 19 20 21 22 23 24 25 26 27 28 29 30 31 32 33 34 35 36 37 38 39 40 41 42 43 44 45 46 47 48 49 50

489
ASUS41 KCLE 212212
RWRCLE
OHIO REGIONAL WEATHER ROUNDUP
NATIONAL WEATHER SERVICE WILMINGTON, OH
600 PM EDT FRI JUL 21 2017

NOTE: "FAIR" INDICATES FEW OR NO CLOUDS BELOW 12,000 FEET WITH NO
SIGNIFICANT WEATHER AND/OR OBSTRUCTIONS TO VISIBILITY.

OHZ001>008-015>018-024>027-034-035-043-044-212300-
   NORTHWEST OHIO

CITY           SKY/WX    TMP DP  RH WIND       PRES   REMARKS
DEFIANCE       FAIR     N/A N/A N/A VRB3      29.96F
FINDLAY        FAIR      89  69  51 W7        29.96S HX  93
TOLEDO EXPRESS FAIR      87  69  54 S6        29.95F HX  91
TOLEDO EXEC    FAIR      87  71  58 E6        29.96F HX  93
LIMA           FAIR      84  73  69 SW12      29.98F HX  90
$$

OHZ009>014-019>023-028>033-038-089-212300-
   NORTHEAST OHIO

CITY           SKY/WX    TMP DP  RH WIND       PRES   REMARKS
CLE-HOPKINS    PTSUNNY   85  71  63 N9        29.97S HX  90
CLE-LAKEFRONT  PTSUNNY   82  73  74 N8        29.95F
CUY CO. ARPT   CLOUDY    82  68  61 N9        29.97S
LORAIN-ELYRIA  FAIR      82  67  60 N10       29.97S
ASHTABULA      FAIR      80  70  71 N3        29.97S
AKRON-CANTON   PTSUNNY   90  66  45 W8        29.95F HX  92
WOOSTER        FAIR      87  70  56 VRB5      29.97S HX  92
MANSFIELD      FAIR      89  68  49 W7        29.98F HX  93
YOUNGSTOWN     CLOUDY    86  70  58 NW9       29.96S HX  90
$$

OHZ042-051>053-060>062-070>072-077>081-212300-
  SOUTHWEST OHIO

CITY           SKY/WX    TMP DP  RH WIND       PRES   REMARKS
CINC-COVINGTON FAIR      90  79  70 CALM      29.97F HX 106
CINC-LUNKEN    FAIR      90  77  65 W6        29.95F HX 103
HAMILTON       FAIR      88  74  63 NW6       29.97F HX  96
DAYTON         PTSUNNY   82  70  66 N6        30.00F
WRIGHT-PAT AFB PTSUNNY   85  72  65 SW5       29.98F HX  91
DAYTON GENERAL FAIR      84  70  62 SW6       29.98F
WILMINGTON     FAIR      85  73  67 SW5       29.99F HX  91
$$

OHZ036-037-039>041-045>050-054>059-063>069-073>076-082>088-212300-
  CENTRAL AND SOUTHEAST OHIO

CITY           SKY/WX    TMP DP  RH WIND       PRES   REMARKS
COLUMBUS       FAIR      83  73  72 SW6       29.97F
OSU AIRPORT    FAIR      83  75  77 SW6       29.98F HX  90
BOLTON FIELD   SUNNY     82  72  69 W6        29.99F
RICKENBACK AFB FAIR      82  72  71 SW6       29.97F
NEWARK         FAIR      83  73  72 SW8       29.97F
MARION         FAIR      87  71  58 W8        29.98F HX  93
LANCASTER      FAIR      79  72  79 W6        29.99F
ZANESVILLE     FAIR      80  73  79 W8        29.98F
NEW PHILLY     FAIR      85  76  74 SW8       29.96S HX  94
$$




USA.gov is the U.S. government's official web portal to all federal, state and local government web resources and services.